Location: Newark
(29.9790°N, 31.1340°E)
Time: 13:38:40
(UTC+00:00)

Transit 2A Rocket - Pass Details

Date: 27 January 2020
Orbit: 591 x 912 km, 66.7° (Epoch: 24 February)

Event Time Altitude Azimuth Distance (km) Brightness Sun altitude
Rises 13:11:03 0° 314° (NW) 3,150 8.2 24.5°
Reaches altitude 10° 13:13:53 10° 298° (WNW) 2,286 7.8 24.0°
Maximum altitude 13:17:38 20° 252° (WSW) 1,763 8.5 23.4°
Drops below altitude 10° 13:21:36 10° 207° (SSW) 2,428 9.0 22.8°
Sets 13:24:45 0° 191° (S) 3,412 9.1 22.2°
